Flag for Malta Weather past 2 weeks in Valletta, Malta

Now
77 °F

Passing clouds.


Feels Like: 78 °F
Forecast: 75 / 86 °F
Wind: 8 mph from West

Location: Luqa

Current Time: Jul 8, 2015 at 8:55:02 AM

Latest Report: Jul 8, 2015 at 8:15 AM


Visibility: N/A

Pressure: 29.95 "Hg

Humidity: 83%

Dew point: 72 °F

Location of VallettaLocation

Historic Weather in Valletta — Graph

°F

Valletta temperature yesterday

Maximum temperature yesterday: 90 °F (at 1:15 PM)
Minimum temperature yesterday: 70 °F (at 5:15 AM)
Average temperature yesterday: 80 °F

Past Weeks' High & Low Weather Summary

 TemperatureHumidityPressure
High90 °F (Jul 7, 1:15 PM)100% (Jun 25, 5:15 AM)30.21 "Hg (Jun 25, 5:15 AM)
Low66 °F (Jun 28, 5:15 AM)31% (Jun 27, 12:45 PM)29.95 "Hg (Jul 8, 2:15 AM)
Average76 °F69%30.07 "Hg
* Reported Jun 23 7:15 AM — Jul 8 7:15 AM, Valletta, Weather by CustomWeather, © 2015

Note: Actual official high and low records may vary slightly from our data, if they occured in-between our weather recording intervals... More about our weather records

Advertising

Valletta weather history for previous 24 hours

 ConditionsComfort  
Time TempWeatherWind HumidityBarometerVisibility
7:15 AM
Wed, Jul 8
75 °FPassing clouds.6 mph89%29.95 "HgN/A
6:45 AM73 °FPassing clouds.5 mph94%29.95 "HgN/A
6:15 AM73 °FPassing clouds.5 mph89%29.95 "Hg6 mi
5:15 AM73 °FPassing clouds.6 mph89%29.95 "Hg6 mi
4:45 AM73 °FMild.7 mph94%29.95 "Hg6 mi
4:15 AM73 °FMild.5 mph94%29.95 "Hg6 mi
3:45 AM73 °FMild.5 mph94%29.95 "Hg6 mi
3:15 AM73 °FFog.5 mph94%29.95 "Hg6 mi
2:45 AM73 °FFog.5 mph94%29.95 "Hg6 mi
2:15 AM73 °FMild.2 mph94%29.95 "Hg6 mi
1:15 AM75 °FClear.3 mph89%29.98 "Hg4 mi
12:45 AM75 °FMild.5 mph83%29.98 "Hg5 mi
11:15 PM
Tue, Jul 7
75 °FClear.2 mph83%30.01 "Hg10 mi
10:45 PM75 °FClear.3 mph83%30.01 "Hg10 mi
10:15 PM77 °FClear.5 mph79%30.01 "Hg10 mi
9:45 PM77 °FClear.5 mph74%30.01 "Hg10 mi
9:15 PM77 °FSunny.3 mph74%29.98 "Hg10 mi
8:45 PM79 °FPassing clouds.6 mph70%29.98 "HgN/A
8:15 PM79 °FSunny.8 mph70%29.98 "Hg10 mi
7:45 PM81 °FSunny.8 mph66%30.01 "Hg10 mi
7:15 PM82 °FSunny.9 mph62%30.01 "Hg10 mi
6:45 PM84 °FSunny.9 mph58%30.01 "Hg10 mi
6:15 PM86 °FPassing clouds.6 mph52%29.98 "HgN/A
5:45 PM88 °FPassing clouds.6 mph43%30.01 "HgN/A
5:15 PM88 °FPassing clouds.6 mph46%30.01 "HgN/A
4:45 PM86 °FPassing clouds.9 mph52%30.01 "HgN/A
4:15 PM86 °FPassing clouds.8 mph52%30.01 "HgN/A
3:45 PM86 °FPassing clouds.6 mph52%30.01 "HgN/A
3:15 PM88 °FPassing clouds.8 mph49%30.04 "HgN/A
2:45 PM86 °FPassing clouds.7 mph52%30.04 "HgN/A
2:15 PM88 °FPassing clouds.9 mph38%30.04 "HgN/A
1:45 PM88 °FPassing clouds.9 mph40%30.04 "HgN/A
1:15 PM90 °FPassing clouds.8 mph38%30.04 "HgN/A
12:45 PM88 °FPassing clouds.6 mph40%30.04 "HgN/A
12:15 PM88 °FPassing clouds.5 mph35%30.07 "HgN/A
11:45 AM88 °FPassing clouds.8 mph43%30.07 "HgN/A
11:15 AM86 °FPassing clouds.6 mph46%30.07 "HgN/A
10:45 AM86 °FPassing clouds.7 mph46%30.07 "HgN/A
10:15 AM84 °FPassing clouds.5 mph48%30.07 "HgN/A
9:45 AM82 °FSunny.5 mph55%30.07 "Hg10 mi
9:15 AM82 °FPassing clouds.6 mph58%30.07 "HgN/A
8:45 AM81 °FPassing clouds.6 mph62%30.07 "HgN/A
8:15 AM79 °FPassing clouds.3 mph70%30.07 "HgN/A
Weather by CustomWeather, © 2015

See weather overviewHow to use our weather pages